Location: Unspecified
(43.4680°N, 87.1740°E)
Time: 18:32:40
(UTC+00:00)

Cosmos 1356 Rocket - Pass Details

Date: 29 July 2021
Orbit: 543 x 597 km, 81.2° (Epoch: 15 September)

Event Time Altitude Azimuth Distance (km) Brightness Sun altitude
Exits shadow 20:06:46 58° 110° (ESE) 643 3.6 -23.1°
Maximum altitude 20:06:56 59° 97° (E) 639 3.6 -23.1°
Drops below altitude 10° 20:10:53 10° 18° (NNE) 1,821 7.0 -22.8°
Sets 20:13:04 0° 14° (NNE) 2,717 8.2 -22.6°
